| time (UTC) | temp C | wind direction | speed KPH | gust KPH | rain 1hr cm | rain 24hr cm | rain mn cm | humidity % | barometer mb |
| 20260902185012 | 32 | 82 | 4.8 | 14.5 | 0.00 | 0.00 | 0.00 | 59 | 1016.7 |
| 20260902184527 | 32 | 54 | 8.0 | 17.7 | 0.00 | 0.00 | 0.00 | 59 | 1016.8 |
| 20260902184014 | 33 | 74 | 4.8 | 17.7 | 0.00 | 0.00 | 0.00 | 56 | 1016.8 |
| 20260902183516 | 33 | 106 | 8.0 | 12.9 | 0.00 | 0.00 | 0.00 | 59 | 1016.8 |
| 20260902183030 | 33 | 98 | 6.4 | 16.1 | 0.00 | 0.00 | 0.00 | 61 | 1016.8 |
| 20260902182516 | 32 | 92 | 4.8 | 16.1 | 0.00 | 0.00 | 0.00 | 59 | 1016.9 |
| 20260902182005 | 32 | 79 | 9.7 | 16.1 | 0.00 | 0.00 | 0.00 | 63 | 1017.0 |
| 20260902181513 | 32 | 105 | 9.7 | 16.1 | 0.00 | 0.00 | 0.00 | 64 | 1017.0 |
| 20260902181007 | 32 | 69 | 6.4 | 14.5 | 0.00 | 0.00 | 0.00 | 64 | 1017.0 |
| 20260902180507 | 32 | 94 | 8.0 | 11.3 | 0.00 | 0.00 | 0.00 | 63 | 1017.1 |
| 20260902180023 | 32 | 31 | 3.2 | 16.1 | 0.00 | 0.00 | 0.00 | 63 | 1017.1 |
| 20260902175510 | 32 | 64 | 6.4 | 20.9 | 0.00 | 0.00 | 0.00 | 62 | 1017.2 |
| 20260902175013 | 32 | 116 | 11.3 | 20.9 | 0.00 | 0.00 | 0.00 | 61 | 1017.2 |
| 20260902174527 | 32 | 128 | 4.8 | 17.7 | 0.00 | 0.00 | 0.00 | 64 | 1017.3 |
| 20260902174013 | 32 | 100 | 6.4 | 17.7 | 0.00 | 0.00 | 0.00 | 64 | 1017.4 |
| 20260902173515 | 32 | 113 | 14.5 | 17.7 | 0.00 | 0.00 | 0.00 | 62 | 1017.4 |
| 20260902173037 | 32 | 71 | 6.4 | 14.5 | 0.00 | 0.00 | 0.00 | 63 | 1017.4 |
| 20260902172519 | 31 | 57 | 4.8 | 12.9 | 0.00 | 0.00 | 0.00 | 68 | 1017.5 |
| 20260902172018 | 31 | 110 | 8.0 | 12.9 | 0.00 | 0.00 | 0.00 | 65 | 1017.6 |
| 20260902171509 | 31 | 352 | 4.8 | 14.5 | 0.00 | 0.00 | 0.00 | 64 | 1017.7 |
| 20260902171003 | 32 | 29 | 6.4 | 14.5 | 0.00 | 0.00 | 0.00 | 63 | 1017.7 |
| 20260902170508 | 32 | 43 | 4.8 | 17.7 | 0.00 | 0.00 | 0.00 | 63 | 1017.9 |
| 20260902170017 | 32 | 9 | 6.4 | 17.7 | 0.00 | 0.00 | 0.00 | 62 | 1017.9 |
| 20260902165510 | 32 | 37 | 9.7 | 17.7 | 0.00 | 0.00 | 0.00 | 66 | 1017.9 |
| 20260902165013 | 31 | 101 | 6.4 | 17.7 | 0.00 | 0.00 | 0.00 | 65 | 1018.0 |
| 20260902164530 | 31 | 42 | 6.4 | 19.3 | 0.00 | 0.00 | 0.00 | 66 | 1018.1 |
| 20260902164012 | 32 | 81 | 16.1 | 19.3 | 0.00 | 0.00 | 0.00 | 67 | 1018.1 |
| 20260902163513 | 32 | 91 | 9.7 | 19.3 | 0.00 | 0.00 | 0.00 | 67 | 1018.1 |
| 20260902163003 | 32 | 101 | 12.9 | 19.3 | 0.00 | 0.00 | 0.00 | 68 | 1018.2 |
| 20260902162504 | 31 | 53 | 6.4 | 17.7 | 0.00 | 0.00 | 0.00 | 70 | 1018.2 |
| 20260902162004 | 31 | 35 | 8.0 | 19.3 | 0.00 | 0.00 | 0.00 | 69 | 1018.4 |
| 20260902161509 | 31 | 66 | 6.4 | 19.3 | 0.00 | 0.00 | 0.00 | 71 | 1018.5 |
| 20260902161006 | 31 | 59 | 11.3 | 19.3 | 0.00 | 0.00 | 0.00 | 70 | 1018.5 |
| 20260902160503 | 31 | 80 | 6.4 | 12.9 | 0.00 | 0.00 | 0.00 | 69 | 1018.6 |
| 20260902160013 | 31 | 54 | 1.6 | 12.9 | 0.00 | 0.00 | 0.00 | 70 | 1018.6 |
| 20260902155509 | 31 | 76 | 6.4 | 11.3 | 0.00 | 0.00 | 0.00 | 72 | 1018.6 |
| 20260902155008 | 31 | 347 | 4.8 | 9.7 | 0.00 | 0.00 | 0.00 | 70 | 1018.6 |
| 20260902154521 | 31 | 46 | 4.8 | 9.7 | 0.00 | 0.00 | 0.00 | 72 | 1018.6 |
| 20260902154011 | 31 | 88 | 1.6 | 16.1 | 0.00 | 0.00 | 0.00 | 76 | 1018.7 |
| 20260902153512 | 30 | 316 | 3.2 | 16.1 | 0.00 | 0.00 | 0.00 | 76 | 1018.7 |
| 20260902153029 | 30 | 9 | 1.6 | 16.1 | 0.00 | 0.00 | 0.00 | 74 | 1018.7 |
| 20260902152513 | 30 | 334 | 6.4 | 16.1 | 0.00 | 0.00 | 0.00 | 75 | 1018.7 |
| 20260902152006 | 30 | 63 | 6.4 | 12.9 | 0.00 | 0.00 | 0.00 | 74 | 1018.6 |
| 20260902151508 | 30 | 59 | 3.2 | 14.5 | 0.00 | 0.00 | 0.00 | 77 | 1018.6 |
| 20260902151005 | 30 | 17 | 4.8 | 14.5 | 0.00 | 0.00 | 0.00 | 77 | 1018.6 |
| 20260902150508 | 30 | 352 | 8.0 | 14.5 | 0.00 | 0.00 | 0.00 | 78 | 1018.5 |
| 20260902150012 | 29 | 61 | 4.8 | 14.5 | 0.00 | 0.00 | 0.00 | 81 | 1018.4 |
| 20260902145506 | 29 | 9 | 9.7 | 16.1 | 0.00 | 0.00 | 0.00 | 79 | 1018.3 |
| 20260902145011 | 29 | 44 | 6.4 | 16.1 | 0.00 | 0.00 | 0.00 | 83 | 1018.3 |
| 20260902144533 | 29 | 65 | 9.7 | 16.1 | 0.00 | 0.00 | 0.00 | 81 | 1018.2 |
| 20260902144011 | 28 | 352 | 3.2 | 11.3 | 0.00 | 0.00 | 0.00 | 83 | 1018.2 |
| 20260902143512 | 28 | 349 | 4.8 | 12.9 | 0.00 | 0.00 | 0.00 | 83 | 1018.3 |
| 20260902143028 | 28 | 331 | 4.8 | 12.9 | 0.00 | 0.00 | 0.00 | 84 | 1018.2 |
| 20260902142514 | 28 | 28 | 6.4 | 9.7 | 0.00 | 0.00 | 0.00 | 84 | 1018.3 |
| 20260902142014 | 28 | 327 | 4.8 | 9.7 | 0.00 | 0.00 | 0.00 | 87 | 1018.2 |
| 20260902141535 | 27 | 17 | 1.6 | 8.0 | 0.00 | 0.00 | 0.00 | 86 | 1018.3 |
| 20260902141003 | 27 | 52 | 1.6 | 9.7 | 0.00 | 0.00 | 0.00 | 86 | 1018.3 |
| 20260902140504 | 28 | 5 | 4.8 | 9.7 | 0.00 | 0.00 | 0.00 | 85 | 1018.3 |
| 20260902140012 | 28 | 32 | 6.4 | 9.7 | 0.00 | 0.00 | 0.00 | 84 | 1018.2 |
| 20260902135504 | 28 | 352 | 4.8 | 9.7 | 0.00 | 0.00 | 0.00 | 85 | 1018.3 |
| 20260902135008 | 28 | 40 | 4.8 | 9.7 | 0.00 | 0.00 | 0.00 | 85 | 1018.3 |
| 20260902134518 | 28 | 352 | 4.8 | 8.0 | 0.00 | 0.00 | 0.00 | 85 | 1018.3 |
| 20260902134009 | 28 | 298 | 0.0 | 8.0 | 0.00 | 0.00 | 0.00 | 86 | 1018.3 |
| 20260902133516 | 27 | 352 | 3.2 | 8.0 | 0.00 | 0.00 | 0.00 | 86 | 1018.3 |
| 20260902133025 | 27 | 318 | 0.0 | 6.4 | 0.00 | 0.00 | 0.00 | 88 | 1018.3 |
| 20260902132516 | 27 | 11 | 3.2 | 8.0 | 0.00 | 0.00 | 0.00 | 88 | 1018.3 |
| 20260902132011 | 27 | 34 | 4.8 | 8.0 | 0.00 | 0.00 | 0.00 | 89 | 1018.4 |
| 20260902131542 | 27 | 40 | 4.8 | 8.0 | 0.00 | 0.00 | 0.00 | 89 | 1018.4 |
| 20260902131015 | 27 | 46 | 1.6 | 6.4 | 0.00 | 0.00 | 0.00 | 91 | 1018.3 |
| 20260902130503 | 26 | 43 | 1.6 | 6.4 | 0.00 | 0.00 | 0.00 | 92 | 1018.4 |
| 20260902130008 | 26 | 69 | 3.2 | 6.4 | 0.00 | 0.00 | 0.00 | 93 | 1018.3 |
| 20260902125506 | 26 | 85 | 4.8 | 6.4 | 0.00 | 0.00 | 0.00 | 93 | 1018.4 |
| 20260902125006 | 26 | 72 | 3.2 | 6.4 | 0.00 | 0.00 | 0.00 | 93 | 1018.4 |
| 20260902124516 | 26 | 81 | 3.2 | 4.8 | 0.00 | 0.00 | 0.00 | 94 | 1018.4 |
| 20260902124009 | 25 | 81 | 0.0 | 3.2 | 0.00 | 0.00 | 0.00 | 95 | 1018.4 |
| 20260902123509 | 25 | 65 | 0.0 | 0.0 | 0.00 | 0.00 | 0.00 | 95 | 1018.4 |
| 20260902123023 | 25 | 78 | 0.0 | 0.0 | 0.00 | 0.00 | 0.00 | 96 | 1018.3 |
| 20260902122514 | 25 | 78 | 0.0 | 0.0 | 0.00 | 0.00 | 0.00 | 96 | 1018.2 |
| 20260902122011 | 25 | 78 | 0.0 | 0.0 | 0.00 | 0.00 | 0.00 | 97 | 1018.2 |
| 20260902121528 | 24 | 40 | 0.0 | 0.0 | 0.00 | 0.00 | 0.00 | 97 | 1018.2 |
| 20260902121014 | 24 | 56 | 0.0 | 0.0 | 0.00 | 0.00 | 0.00 | 97 | 1018.1 |
| 20260902120516 | 24 | 49 | 0.0 | 0.0 | 0.00 | 0.00 | 0.00 | 97 | 1018.0 |
| 20260902120031 | 24 | 49 | 0.0 | 0.0 | 0.00 | 0.00 | 0.00 | 97 | 1018.0 |
| 20260902115505 | 23 | 40 | 0.0 | 0.0 | 0.00 | 0.00 | 0.00 | 97 | 1017.9 |
| 20260902115006 | 23 | 46 | 0.0 | 0.0 | 0.00 | 0.00 | 0.00 | 97 | 1017.9 |
| 20260902114519 | 23 | 49 | 0.0 | 0.0 | 0.00 | 0.00 | 0.00 | 97 | 1018.0 |
| 20260902114010 | 23 | 39 | 0.0 | 0.0 | 0.00 | 0.00 | 0.00 | 97 | 1018.0 |
| 20260902113509 | 23 | 39 | 0.0 | 0.0 | 0.00 | 0.00 | 0.00 | 97 | 1018.0 |
| 20260902113020 | 23 | 38 | 0.0 | 0.0 | 0.00 | 0.00 | 0.00 | 97 | 1017.9 |
| 20260902112513 | 23 | 51 | 0.0 | 0.0 | 0.00 | 0.00 | 0.00 | 97 | 1017.9 |
| 20260902112011 | 23 | 55 | 0.0 | 0.0 | 0.00 | 0.00 | 0.00 | 97 | 1017.9 |
| 20260902111527 | 23 | 55 | 0.0 | 0.0 | 0.00 | 0.00 | 0.00 | 97 | 1017.9 |
| 20260902111012 | 23 | 130 | 0.0 | 0.0 | 0.00 | 0.00 | 0.00 | 97 | 1017.8 |
| 20260902110515 | 23 | 130 | 0.0 | 0.0 | 0.00 | 0.00 | 0.00 | 97 | 1017.7 |
| 20260902110030 | 23 | 130 | 0.0 | 0.0 | 0.00 | 0.00 | 0.00 | 97 | 1017.7 |
| 20260902105516 | 23 | 130 | 0.0 | 0.0 | 0.00 | 0.00 | 0.00 | 97 | 1017.6 |
| 20260902105016 | 23 | 130 | 0.0 | 0.0 | 0.00 | 0.00 | 0.00 | 97 | 1017.5 |
| 20260902104517 | 23 | 130 | 0.0 | 0.0 | 0.00 | 0.00 | 0.00 | 97 | 1017.5 |
| 20260902104007 | 23 | 130 | 0.0 | 0.0 | 0.00 | 0.00 | 0.00 | 97 | 1017.5 |
| 20260902103509 | 23 | 130 | 0.0 | 0.0 | 0.00 | 0.00 | 0.00 | 97 | 1017.6 |
| 20260902103019 | 23 | 130 | 0.0 | 0.0 | 0.00 | 0.00 | 0.00 | 96 | 1017.6 |
| 20260902102510 | 23 | 130 | 0.0 | 0.0 | 0.00 | 0.00 | 0.00 | 96 | 1017.6 |
| 20260902102011 | 23 | 130 | 0.0 | 0.0 | 0.00 | 0.00 | 0.00 | 97 | 1017.6 |
| 20260902101527 | 23 | 130 | 0.0 | 0.0 | 0.00 | 0.00 | 0.00 | 97 | 1017.5 |
| 20260902101014 | 23 | 130 | 0.0 | 0.0 | 0.00 | 0.00 | 0.00 | 97 | 1017.4 |
| 20260902100515 | 23 | 130 | 0.0 | 0.0 | 0.00 | 0.00 | 0.00 | 97 | 1017.4 |
| 20260902100029 | 23 | 130 | 0.0 | 0.0 | 0.00 | 0.00 | 0.00 | 97 | 1017.3 |
| 20260902095517 | 23 | 130 | 0.0 | 0.0 | 0.00 | 0.00 | 0.00 | 97 | 1017.3 |
| 20260902095017 | 23 | 130 | 0.0 | 0.0 | 0.00 | 0.00 | 0.00 | 97 | 1017.2 |
| 20260902094533 | 23 | 130 | 0.0 | 0.0 | 0.00 | 0.00 | 0.00 | 97 | 1017.1 |
| 20260902094016 | 23 | 130 | 0.0 | 0.0 | 0.00 | 0.00 | 0.00 | 96 | 1017.0 |
| 20260902093508 | 23 | 130 | 0.0 | 0.0 | 0.00 | 0.00 | 0.00 | 96 | 1017.0 |
| 20260902093016 | 23 | 130 | 0.0 | 0.0 | 0.00 | 0.00 | 0.00 | 96 | 1016.9 |
| 20260902092512 | 23 | 130 | 0.0 | 0.0 | 0.00 | 0.00 | 0.00 | 96 | 1016.8 |
| 20260902092012 | 23 | 130 | 0.0 | 0.0 | 0.00 | 0.00 | 0.00 | 97 | 1016.7 |
| 20260902091554 | 23 | 130 | 0.0 | 0.0 | 0.00 | 0.00 | 0.00 | 97 | 1016.6 |
| 20260902091013 | 23 | 130 | 0.0 | 0.0 | 0.00 | 0.00 | 0.00 | 97 | 1016.7 |
| 20260902090513 | 23 | 130 | 0.0 | 0.0 | 0.00 | 0.00 | 0.00 | 96 | 1016.8 |
| 20260902090029 | 23 | 130 | 0.0 | 0.0 | 0.00 | 0.00 | 0.00 | 96 | 1016.8 |
| 20260902085514 | 23 | 130 | 0.0 | 0.0 | 0.00 | 0.00 | 0.00 | 96 | 1016.7 |
| 20260902085014 | 23 | 130 | 0.0 | 0.0 | 0.00 | 0.00 | 0.00 | 96 | 1016.7 |
| 20260902084535 | 23 | 130 | 0.0 | 0.0 | 0.00 | 0.00 | 0.00 | 96 | 1016.7 |
| 20260902084015 | 23 | 130 | 0.0 | 0.0 | 0.00 | 0.00 | 0.00 | 96 | 1016.6 |
| 20260902083519 | 23 | 130 | 0.0 | 0.0 | 0.00 | 0.00 | 0.00 | 96 | 1016.6 |
| 20260902083031 | 23 | 130 | 0.0 | 0.0 | 0.00 | 0.00 | 0.00 | 96 | 1016.6 |
| 20260902082508 | 23 | 130 | 0.0 | 0.0 | 0.00 | 0.00 | 0.00 | 96 | 1016.5 |
| 20260902082008 | 23 | 130 | 0.0 | 0.0 | 0.00 | 0.00 | 0.00 | 96 | 1016.5 |
| 20260902081530 | 23 | 130 | 0.0 | 0.0 | 0.00 | 0.00 | 0.00 | 96 | 1016.6 |
| 20260902081009 | 24 | 130 | 0.0 | 0.0 | 0.00 | 0.00 | 0.00 | 96 | 1016.6 |
| 20260902080513 | 24 | 130 | 0.0 | 0.0 | 0.00 | 0.00 | 0.00 | 96 | 1016.6 |
| 20260902080035 | 24 | 130 | 0.0 | 0.0 | 0.00 | 0.00 | 0.00 | 96 | 1016.6 |
| 20260902075510 | 24 | 130 | 0.0 | 0.0 | 0.00 | 0.00 | 0.00 | 96 | 1016.7 |
| 20260902075016 | 24 | 130 | 0.0 | 0.0 | 0.00 | 0.00 | 0.00 | 96 | 1016.8 |
| 20260902074510 | 24 | 130 | 0.0 | 0.0 | 0.00 | 0.00 | 0.00 | 96 | 1016.9 |
| 20260902074004 | 24 | 130 | 0.0 | 0.0 | 0.00 | 0.00 | 0.00 | 96 | 1016.8 |
| 20260902073506 | 24 | 130 | 0.0 | 0.0 | 0.00 | 0.00 | 0.00 | 96 | 1016.8 |
| 20260902073015 | 24 | 130 | 0.0 | 0.0 | 0.00 | 0.00 | 0.00 | 96 | 1016.9 |
| 20260902072507 | 24 | 130 | 0.0 | 0.0 | 0.00 | 0.00 | 0.00 | 96 | 1016.8 |
| 20260902072007 | 24 | 130 | 0.0 | 0.0 | 0.00 | 0.00 | 0.00 | 96 | 1016.8 |
| 20260902071545 | 24 | 130 | 0.0 | 0.0 | 0.00 | 0.00 | 0.00 | 96 | 1016.8 |
| 20260902071012 | 24 | 130 | 0.0 | 0.0 | 0.00 | 0.00 | 0.00 | 96 | 1016.7 |
| 20260902070511 | 24 | 130 | 0.0 | 0.0 | 0.00 | 0.00 | 0.00 | 96 | 1016.6 |
| 20260902070027 | 24 | 130 | 0.0 | 0.0 | 0.00 | 0.00 | 0.00 | 96 | 1016.6 |
| 20260902065518 | 24 | 130 | 0.0 | 0.0 | 0.00 | 0.00 | 0.00 | 95 | 1016.6 |
| 20260902065014 | 24 | 130 | 0.0 | 0.0 | 0.00 | 0.00 | 0.00 | 95 | 1016.6 |
| 20260902064531 | 24 | 130 | 0.0 | 0.0 | 0.00 | 0.00 | 0.00 | 96 | 1016.7 |
| 20260902064018 | 24 | 130 | 0.0 | 0.0 | 0.00 | 0.00 | 0.00 | 96 | 1016.8 |
| 20260902063503 | 24 | 130 | 0.0 | 0.0 | 0.00 | 0.00 | 0.00 | 96 | 1016.9 |
| 20260902063019 | 24 | 130 | 0.0 | 0.0 | 0.00 | 0.00 | 0.00 | 96 | 1016.9 |
| 20260902062505 | 25 | 130 | 0.0 | 0.0 | 0.00 | 0.00 | 0.00 | 96 | 1016.9 |
| 20260902062006 | 25 | 130 | 0.0 | 0.0 | 0.00 | 0.00 | 0.00 | 96 | 1017.0 |
| 20260902061531 | 25 | 130 | 0.0 | 0.0 | 0.00 | 0.00 | 0.00 | 96 | 1017.0 |
| 20260902061008 | 25 | 130 | 0.0 | 0.0 | 0.00 | 0.00 | 0.00 | 96 | 1017.0 |
| 20260902060512 | 25 | 130 | 0.0 | 0.0 | 0.00 | 0.00 | 0.00 | 96 | 1017.0 |
| 20260902060031 | 25 | 130 | 0.0 | 0.0 | 0.00 | 0.00 | 0.00 | 96 | 1017.0 |
| 20260902055516 | 25 | 130 | 0.0 | 0.0 | 0.00 | 0.00 | 0.00 | 96 | 1017.0 |
| 20260902055012 | 25 | 130 | 0.0 | 0.0 | 0.00 | 0.00 | 0.00 | 96 | 1017.1 |
| 20260902054538 | 25 | 130 | 0.0 | 0.0 | 0.00 | 0.00 | 0.00 | 96 | 1017.2 |
| 20260902054015 | 24 | 126 | 0.0 | 0.0 | 0.00 | 0.00 | 0.00 | 96 | 1017.1 |
| 20260902053514 | 24 | 93 | 0.0 | 3.2 | 0.00 | 0.00 | 0.00 | 95 | 1017.1 |
| 20260902053033 | 24 | 93 | 0.0 | 3.2 | 0.00 | 0.00 | 0.00 | 95 | 1017.1 |
| 20260902052504 | 25 | 93 | 0.0 | 3.2 | 0.00 | 0.00 | 0.00 | 96 | 1017.1 |
| 20260902052004 | 25 | 93 | 0.0 | 3.2 | 0.00 | 0.00 | 0.00 | 95 | 1017.0 |
| 20260902051516 | 25 | 93 | 3.2 | 3.2 | 0.00 | 0.00 | 0.00 | 95 | 1017.1 |
| 20260902051007 | 25 | 238 | 0.0 | 6.4 | 0.00 | 0.00 | 0.00 | 96 | 1017.0 |
| 20260902050507 | 24 | 116 | 0.0 | 6.4 | 0.00 | 0.00 | 0.00 | 95 | 1017.1 |
| 20260902050046 | 25 | 94 | 1.6 | 6.4 | 0.00 | 0.00 | 0.00 | 96 | 1017.1 |
| 20260902045511 | 24 | 275 | 0.0 | 6.4 | 0.00 | 0.00 | 0.00 | 96 | 1017.1 |
| 20260902045012 | 24 | 101 | 4.8 | 6.4 | 0.00 | 0.00 | 0.00 | 95 | 1017.2 |
| 20260902044531 | 24 | 289 | 0.0 | 0.0 | 0.00 | 0.00 | 0.00 | 95 | 1017.1 |
| 20260902044014 | 24 | 102 | 0.0 | 0.0 | 0.00 | 0.00 | 0.00 | 94 | 1017.1 |
| 20260902043517 | 24 | 102 | 0.0 | 0.0 | 0.00 | 0.00 | 0.00 | 95 | 1017.1 |
| 20260902043038 | 24 | 102 | 0.0 | 0.0 | 0.00 | 0.00 | 0.00 | 95 | 1017.0 |
| 20260902042517 | 24 | 102 | 0.0 | 3.2 | 0.00 | 0.00 | 0.00 | 94 | 1017.0 |
| 20260902042017 | 25 | 281 | 0.0 | 3.2 | 0.00 | 0.00 | 0.00 | 95 | 1017.0 |
| 20260902041519 | 24 | 86 | 0.0 | 6.4 | 0.00 | 0.00 | 0.00 | 94 | 1016.9 |
| 20260902041007 | 25 | 86 | 4.8 | 6.4 | 0.00 | 0.00 | 0.00 | 94 | 1017.0 |
| 20260902040508 | 25 | 115 | 0.0 | 0.0 | 0.00 | 0.00 | 0.00 | 94 | 1017.0 |
| 20260902040019 | 25 | 115 | 0.0 | 3.2 | 0.00 | 0.00 | 0.00 | 94 | 1017.0 |
| 20260902035510 | 25 | 115 | 0.0 | 3.2 | 0.00 | 0.00 | 0.00 | 93 | 1017.0 |
| 20260902035013 | 25 | 115 | 0.0 | 3.2 | 0.00 | 0.00 | 0.00 | 94 | 1017.1 |
| 20260902034529 | 25 | 216 | 0.0 | 0.0 | 0.00 | 0.00 | 0.00 | 94 | 1017.1 |
| 20260902034017 | 25 | 216 | 0.0 | 0.0 | 0.00 | 0.00 | 0.00 | 93 | 1017.4 |
| 20260902033512 | 25 | 124 | 0.0 | 0.0 | 0.00 | 0.00 | 0.00 | 93 | 1017.4 |
| 20260902033031 | 25 | 124 | 0.0 | 0.0 | 0.00 | 0.00 | 0.00 | 93 | 1017.4 |
| 20260902032517 | 25 | 124 | 0.0 | 0.0 | 0.00 | 0.00 | 0.00 | 92 | 1017.3 |
| 20260902032018 | 25 | 124 | 0.0 | 0.0 | 0.00 | 0.00 | 0.00 | 92 | 1017.5 |
| 20260902031534 | 25 | 198 | 0.0 | 0.0 | 0.00 | 0.00 | 0.00 | 92 | 1017.5 |
| 20260902031006 | 25 | 198 | 0.0 | 0.0 | 0.00 | 0.00 | 0.00 | 91 | 1017.6 |
| 20260902030505 | 25 | 198 | 0.0 | 0.0 | 0.00 | 0.00 | 0.00 | 91 | 1017.6 |
| 20260902030019 | 25 | 198 | 0.0 | 0.0 | 0.00 | 0.00 | 0.00 | 90 | 1017.6 |
| 20260902025510 | 26 | 198 | 0.0 | 0.0 | 0.00 | 0.00 | 0.00 | 90 | 1017.4 |
| 20260902025009 | 26 | 198 | 0.0 | 0.0 | 0.00 | 0.00 | 0.00 | 90 | 1017.3 |
| 20260902024524 | 26 | 198 | 0.0 | 0.0 | 0.00 | 0.00 | 0.00 | 89 | 1017.4 |
| 20260902024015 | 26 | 198 | 0.0 | 0.0 | 0.00 | 0.00 | 0.00 | 89 | 1017.4 |
| 20260902023512 | 26 | 198 | 0.0 | 0.0 | 0.00 | 0.00 | 0.00 | 89 | 1017.4 |
| 20260902023030 | 26 | 198 | 0.0 | 0.0 | 0.00 | 0.00 | 0.00 | 89 | 1017.4 |
| 20260902022518 | 26 | 198 | 0.0 | 0.0 | 0.00 | 0.00 | 0.00 | 89 | 1017.3 |
| 20260902022017 | 26 | 184 | 0.0 | 0.0 | 0.00 | 0.00 | 0.00 | 88 | 1017.2 |
| 20260902021532 | 26 | 186 | 0.0 | 3.2 | 0.00 | 0.00 | 0.00 | 87 | 1017.2 |
| 20260902021017 | 26 | 186 | 0.0 | 3.2 | 0.00 | 0.00 | 0.00 | 87 | 1017.1 |
| 20260902020520 | 26 | 186 | 0.0 | 8.0 | 0.00 | 0.00 | 0.00 | 87 | 1017.0 |
| 20260902020015 | 26 | 178 | 0.0 | 8.0 | 0.00 | 0.00 | 0.00 | 87 | 1016.9 |
| 20260902015506 | 26 | 236 | 1.6 | 9.7 | 0.00 | 0.00 | 0.00 | 87 | 1016.9 |
| 20260902015012 | 26 | 188 | 0.0 | 9.7 | 0.00 | 0.00 | 0.00 | 87 | 1016.8 |
| 20260902014528 | 26 | 164 | 0.0 | 6.4 | 0.00 | 0.00 | 0.00 | 87 | 1016.7 |
| 20260902014011 | 26 | 256 | 0.0 | 0.0 | 0.00 | 0.00 | 0.00 | 86 | 1016.6 |
| 20260902013513 | 26 | 256 | 0.0 | 0.0 | 0.00 | 0.00 | 0.00 | 86 | 1016.5 |
| 20260902013030 | 26 | 256 | 0.0 | 0.0 | 0.00 | 0.00 | 0.00 | 84 | 1016.4 |
| 20260902012515 | 27 | 256 | 0.0 | 0.0 | 0.00 | 0.00 | 0.00 | 83 | 1016.4 |
| 20260902012014 | 27 | 256 | 0.0 | 0.0 | 0.00 | 0.00 | 0.00 | 83 | 1016.3 |
| 20260902011542 | 27 | 256 | 0.0 | 0.0 | 0.00 | 0.00 | 0.00 | 82 | 1016.3 |
| 20260902011017 | 27 | 256 | 0.0 | 0.0 | 0.00 | 0.00 | 0.00 | 83 | 1016.2 |
| 20260902010518 | 27 | 256 | 0.0 | 0.0 | 0.00 | 0.00 | 0.00 | 82 | 1016.3 |
| 20260902010104 | 27 | 256 | 0.0 | 0.0 | 0.00 | 0.00 | 0.00 | 80 | 1016.2 |
| 20260902005516 | 27 | 256 | 0.0 | 0.0 | 0.00 | 0.00 | 0.00 | 79 | 1016.3 |
| 20260902005010 | 28 | 256 | 0.0 | 0.0 | 0.00 | 0.00 | 0.00 | 79 | 1016.1 |
| 20260902004520 | 28 | 256 | 0.0 | 0.0 | 0.00 | 0.00 | 0.00 | 78 | 1016.1 |
| 20260902004011 | 28 | 256 | 0.0 | 0.0 | 0.00 | 0.00 | 0.00 | 77 | 1016.1 |
| 20260902003512 | 28 | 256 | 0.0 | 0.0 | 0.00 | 0.00 | 0.00 | 76 | 1016.0 |
| 20260902003027 | 28 | 256 | 0.0 | 0.0 | 0.00 | 0.00 | 0.00 | 76 | 1016.0 |
| 20260902002514 | 28 | 256 | 0.0 | 0.0 | 0.00 | 0.00 | 0.00 | 75 | 1016.0 |
| 20260902002013 | 29 | 256 | 0.0 | 0.0 | 0.00 | 0.00 | 0.00 | 74 | 1016.0 |
| 20260902001531 | 29 | 256 | 0.0 | 0.0 | 0.00 | 0.00 | 0.00 | 73 | 1016.1 |
| 20260902001015 | 30 | 256 | 0.0 | 0.0 | 0.00 | 0.00 | 0.00 | 73 | 1016.0 |
| 20260902000517 | 30 | 256 | 0.0 | 0.0 | 0.00 | 0.00 | 0.00 | 72 | 1016.0 |
| 20260902000042 | 30 | 256 | 0.0 | 0.0 | 0.00 | 0.00 | 0.00 | 71 | 1016.0 |
| 20260901235518 | 30 | 256 | 0.0 | 0.0 | 0.00 | 0.00 | 0.00 | 70 | 1016.0 |
| 20260901235018 | 30 | 260 | 0.0 | 0.0 | 0.00 | 0.00 | 0.00 | 70 | 1016.0 |
| 20260901234533 | 30 | 259 | 0.0 | 4.8 | 0.00 | 0.00 | 0.00 | 70 | 1016.0 |
| 20260901234007 | 31 | 96 | 0.0 | 6.4 | 0.00 | 0.00 | 0.00 | 68 | 1016.0 |
| 20260901233508 | 31 | 107 | 3.2 | 6.4 | 0.00 | 0.00 | 0.00 | 65 | 1016.0 |
| 20260901233023 | 31 | 95 | 4.8 | 6.4 | 0.00 | 0.00 | 0.00 | 65 | 1016.1 |
| 20260901232512 | 31 | 98 | 4.8 | 6.4 | 0.00 | 0.00 | 0.00 | 65 | 1016.1 |
| 20260901232014 | 31 | 110 | 3.2 | 6.4 | 0.00 | 0.00 | 0.00 | 65 | 1016.0 |
| 20260901231505 | 31 | 119 | 3.2 | 4.8 | 0.00 | 0.00 | 0.00 | 66 | 1016.0 |
| 20260901231002 | 32 | 110 | 3.2 | 4.8 | 0.00 | 0.00 | 0.00 | 65 | 1016.0 |
| 20260901230502 | 32 | 101 | 1.6 | 9.7 | 0.00 | 0.00 | 0.00 | 65 | 1015.9 |
| 20260901230009 | 32 | 90 | 4.8 | 9.7 | 0.00 | 0.00 | 0.00 | 63 | 1015.8 |
| 20260901225503 | 32 | 90 | 3.2 | 6.4 | 0.00 | 0.00 | 0.00 | 63 | 1015.9 |
| 20260901225007 | 32 | 85 | 4.8 | 9.7 | 0.00 | 0.00 | 0.00 | 62 | 1015.9 |
| 20260901224518 | 32 | 115 | 3.2 | 16.1 | 0.00 | 0.00 | 0.00 | 63 | 1016.0 |
| 20260901224007 | 32 | 96 | 8.0 | 16.1 | 0.00 | 0.00 | 0.00 | 61 | 1016.0 |
| 20260901223508 | 32 | 86 | 6.4 | 12.9 | 0.00 | 0.00 | 0.00 | 61 | 1016.0 |
| 20260901223042 | 32 | 104 | 6.4 | 12.9 | 0.00 | 0.00 | 0.00 | 62 | 1015.9 |
| 20260901222509 | 32 | 92 | 4.8 | 16.1 | 0.00 | 0.00 | 0.00 | 61 | 1015.9 |
| 20260901222016 | 32 | 60 | 8.0 | 16.1 | 0.00 | 0.00 | 0.00 | 60 | 1015.9 |
| 20260901221505 | 33 | 88 | 6.4 | 12.9 | 0.00 | 0.00 | 0.00 | 61 | 1015.8 |
| 20260901221003 | 33 | 109 | 4.8 | 12.9 | 0.00 | 0.00 | 0.00 | 60 | 1015.8 |
| 20260901220502 | 33 | 109 | 3.2 | 16.1 | 0.00 | 0.00 | 0.00 | 61 | 1015.8 |
| 20260901220006 | 33 | 71 | 11.3 | 16.1 | 0.00 | 0.00 | 0.00 | 59 | 1015.8 |
| 20260901215505 | 33 | 71 | 4.8 | 16.1 | 0.00 | 0.00 | 0.00 | 61 | 1015.8 |
| 20260901215002 | 33 | 78 | 6.4 | 19.3 | 0.00 | 0.00 | 0.00 | 57 | 1015.7 |
| 20260901214513 | 33 | 78 | 14.5 | 19.3 | 0.00 | 0.00 | 0.00 | 60 | 1015.7 |
| 20260901214006 | 33 | 100 | 8.0 | 17.7 | 0.00 | 0.00 | 0.00 | 61 | 1015.6 |
| 20260901213508 | 33 | 128 | 6.4 | 14.5 | 0.00 | 0.00 | 0.00 | 58 | 1015.6 |
| 20260901213022 | 33 | 82 | 4.8 | 17.7 | 0.00 | 0.00 | 0.00 | 59 | 1015.6 |
| 20260901212511 | 33 | 94 | 6.4 | 17.7 | 0.00 | 0.00 | 0.00 | 58 | 1015.7 |
| 20260901212011 | 33 | 21 | 4.8 | 17.7 | 0.00 | 0.00 | 0.00 | 58 | 1015.7 |
| 20260901211528 | 33 | 20 | 9.7 | 17.7 | 0.00 | 0.00 | 0.00 | 56 | 1015.6 |
| 20260901211002 | 33 | 114 | 8.0 | 16.1 | 0.00 | 0.00 | 0.00 | 58 | 1015.6 |
| 20260901210503 | 33 | 98 | 11.3 | 19.3 | 0.00 | 0.00 | 0.00 | 57 | 1015.6 |
| 20260901210008 | 33 | 96 | 6.4 | 19.3 | 0.00 | 0.00 | 0.00 | 60 | 1015.7 |
| 20260901205503 | 33 | 54 | 6.4 | 12.9 | 0.00 | 0.00 | 0.00 | 59 | 1015.7 |
| 20260901205002 | 33 | 94 | 8.0 | 17.7 | 0.00 | 0.00 | 0.00 | 57 | 1015.7 |
| 20260901204520 | 33 | 92 | 6.4 | 17.7 | 0.00 | 0.00 | 0.00 | 58 | 1015.8 |
| 20260901204006 | 33 | 88 | 11.3 | 22.5 | 0.00 | 0.00 | 0.00 | 61 | 1015.8 |
| 20260901203507 | 33 | 74 | 11.3 | 22.5 | 0.00 | 0.00 | 0.00 | 58 | 1015.8 |
| 20260901203019 | 33 | 11 | 1.6 | 14.5 | 0.00 | 0.00 | 0.00 | 57 | 1015.8 |
| 20260901202510 | 33 | 35 | 8.0 | 20.9 | 0.00 | 0.00 | 0.00 | 58 | 1015.9 |
| 20260901202009 | 33 | 107 | 11.3 | 20.9 | 0.00 | 0.00 | 0.00 | 59 | 1015.9 |
| 20260901201525 | 33 | 120 | 11.3 | 14.5 | 0.00 | 0.00 | 0.00 | 59 | 1015.9 |
| 20260901201014 | 33 | 111 | 3.2 | 17.7 | 0.00 | 0.00 | 0.00 | 60 | 1016.0 |
| 20260901200513 | 33 | 69 | 12.9 | 17.7 | 0.00 | 0.00 | 0.00 | 58 | 1016.0 |
| 20260901200015 | 33 | 46 | 6.4 | 16.1 | 0.00 | 0.00 | 0.00 | 58 | 1016.1 |
| 20260901195503 | 33 | 74 | 8.0 | 16.1 | 0.00 | 0.00 | 0.00 | 59 | 1016.2 |
| 20260901195003 | 33 | 91 | 8.0 | 19.3 | 0.00 | 0.00 | 0.00 | 62 | 1016.2 |
| 20260901194509 | 32 | 58 | 8.0 | 19.3 | 0.00 | 0.00 | 0.00 | 58 | 1016.3 |
| 20260901194006 | 32 | 87 | 11.3 | 17.7 | 0.00 | 0.00 | 0.00 | 59 | 1016.3 |
| 20260901193507 | 32 | 64 | 4.8 | 20.9 | 0.00 | 0.00 | 0.00 | 62 | 1016.5 |
| 20260901193014 | 32 | 121 | 12.9 | 20.9 | 0.00 | 0.00 | 0.00 | 61 | 1016.6 |
| 20260901192509 | 32 | 92 | 8.0 | 16.1 | 0.00 | 0.00 | 0.00 | 62 | 1016.5 |
| 20260901192008 | 32 | 73 | 8.0 | 22.5 | 0.00 | 0.00 | 0.00 | 61 | 1016.6 |
| 20260901191529 | 32 | 40 | 11.3 | 22.5 | 0.00 | 0.00 | 0.00 | 61 | 1016.7 |
| 20260901191015 | 32 | 54 | 8.0 | 22.5 | 0.00 | 0.00 | 0.00 | 67 | 1016.7 |
| 20260901190513 | 32 | 38 | 4.8 | 20.9 | 0.00 | 0.00 | 0.00 | 65 | 1016.9 |
| 20260901190032 | 32 | 66 | 12.9 | 20.9 | 0.00 | 0.00 | 0.00 | 62 | 1016.8 |
| 20260901185513 | 32 | 126 | 11.3 | 19.3 | 0.00 | 0.00 | 0.00 | 61 | 1016.9 |